Location: Newark
(51.3318°N, 0.0053°E)
Time: 08:11:26
(UTC+00:00)

CAS-6 - Pass Details

Date: 05 July 2022
Orbit: 613 x 634 km, 97.9° (Epoch: 09 August)

Event Time Altitude Azimuth Distance (km) Brightness Sun altitude
Exits shadow 22:53:43 14° 206° (SSW) 1,727 ? -14.3°
Maximum altitude 22:56:51 32° 264° (W) 1,080 ? -14.5°
Drops below altitude 10° 23:00:45 10° 328° (NNW) 1,998 ? -14.6°
Sets 23:03:09 0° 339° (NNW) 2,906 ? -14.7°
